• In Belarus
  • List of Countries
  • For 7 days
  • Water Temperature
  • Satellite Maps
  • Weather Map
  • Weather Widgets
  • user-avatar
    Login

    Hourly Weather Montana

    Today, 19 July, Thursday

    Time Temperature Precipitation Wind Pressure Humidity
    00:00 +19°C° 0 mm 4 mps 729 mmHg 80%
    01:00 +18°C° 0 mm 4 mps 729 mmHg 80%
    02:00 +18°C° 0 mm 3 mps 729 mmHg 83%
    03:00 +18°C° 0.1 mm 3 mps 729 mmHg 83%
    04:00 +18°C° 0.1 mm 3 mps 729 mmHg 83%
    05:00 +18°C° 0.1 mm 3 mps 728 mmHg 82%
    06:00 +19°C° 0.1 mm 4 mps 729 mmHg 81%
    07:00 +20°C° 0.1 mm 4 mps 729 mmHg 79%
    08:00 +20°C° 0.1 mm 4 mps 729 mmHg 78%
    09:00 +21°C° 0.1 mm 4 mps 729 mmHg 76%
    10:00 +22°C° 0.1 mm 4 mps 729 mmHg 73%
    11:00 +23°C° 0.1 mm 5 mps 730 mmHg 71%
    12:00 +23°C° 0.1 mm 5 mps 730 mmHg 70%
    13:00 +25°C° 0.1 mm 5 mps 730 mmHg 68%
    14:00 +25°C° 0.1 mm 5 mps 730 mmHg 66%
    15:00 +25°C° 0 mm 5 mps 730 mmHg 66%
    16:00 +25°C° 0 mm 5 mps 730 mmHg 66%
    17:00 +25°C° 0 mm 5 mps 730 mmHg 66%
    18:00 +23°C° 0 mm 4 mps 730 mmHg 70%
    19:00 +22°C° 0 mm 4 mps 730 mmHg 74%
    20:00 +21°C° 0 mm 3 mps 730 mmHg 78%
    21:00 +20°C° 0 mm 3 mps 730 mmHg 80%
    22:00 +20°C° 0 mm 3 mps 730 mmHg 83%
    23:00 +19°C° 0 mm 3 mps 731 mmHg 85%

    Tomorrow, 20 July, Friday

    Time Temperature Precipitation Wind Pressure Humidity
    00:00 +19°C° 0 mm 3 mps 731 mmHg 85%
    01:00 +19°C° 0 mm 3 mps 731 mmHg 86%
    02:00 +19°C° 0 mm 3 mps 731 mmHg 87%
    03:00 +19°C° 0 mm 3 mps 731 mmHg 87%
    04:00 +19°C° 0 mm 3 mps 731 mmHg 88%
    05:00 +19°C° 0 mm 3 mps 731 mmHg 88%
    06:00 +20°C° 0 mm 3 mps 731 mmHg 83%
    07:00 +22°C° 0 mm 3 mps 731 mmHg 78%
    08:00 +23°C° 0 mm 4 mps 731 mmHg 73%
    09:00 +25°C° 0 mm 4 mps 732 mmHg 69%
    10:00 +26°C° 0 mm 4 mps 732 mmHg 64%
    11:00 +28°C° 0 mm 4 mps 732 mmHg 59%
    12:00 +28°C° 0 mm 4 mps 732 mmHg 57%
    13:00 +29°C° 0 mm 5 mps 731 mmHg 54%
    14:00 +30°C° 0 mm 5 mps 731 mmHg 52%
    15:00 +30°C° 0 mm 5 mps 731 mmHg 52%
    16:00 +30°C° 0 mm 5 mps 731 mmHg 52%
    17:00 +30°C° 0 mm 5 mps 731 mmHg 52%
    18:00 +28°C° 0.1 mm 4 mps 731 mmHg 58%
    19:00 +26°C° 0.1 mm 3 mps 731 mmHg 65%
    20:00 +24°C° 0.1 mm 3 mps 731 mmHg 71%
    21:00 +22°C° 0 mm 3 mps 732 mmHg 74%
    22:00 +21°C° 0 mm 3 mps 732 mmHg 77%
    23:00 +20°C° 0 mm 3 mps 732 mmHg 79%

    Day after tomorrow, 21 July, Saturday

    Time Temperature Precipitation Wind Pressure Humidity
    00:00 +20°C° 0 mm 3 mps 732 mmHg 79%
    01:00 +20°C° 0 mm 3 mps 732 mmHg 79%
    02:00 +19°C° 0 mm 3 mps 732 mmHg 79%
    03:00 +19°C° 0 mm 3 mps 732 mmHg 79%
    04:00 +19°C° 0 mm 2 mps 732 mmHg 78%
    05:00 +18°C° 0 mm 2 mps 732 mmHg 78%
    06:00 +20°C° 0 mm 3 mps 732 mmHg 72%
    07:00 +22°C° 0 mm 3 mps 732 mmHg 67%
    08:00 +25°C° 0 mm 3 mps 733 mmHg 61%
    09:00 +27°C° 0 mm 3 mps 733 mmHg 56%
    10:00 +29°C° 0 mm 3 mps 733 mmHg 51%
    11:00 +30°C° 0 mm 3 mps 733 mmHg 46%
    12:00 +31°C° 0 mm 3 mps 732 mmHg 43%
    13:00 +33°C° 0 mm 3 mps 732 mmHg 40%
    14:00 +34°C° 0 mm 3 mps 732 mmHg 37%
    15:00 +34°C° 0 mm 3 mps 732 mmHg 36%
    16:00 +34°C° 0 mm 3 mps 732 mmHg 36%
    17:00 +34°C° 0 mm 3 mps 732 mmHg 35%
    18:00 +30°C° 0 mm 3 mps 732 mmHg 41%
    19:00 +28°C° 0 mm 2 mps 732 mmHg 47%
    20:00 +25°C° 0 mm 1 mps 732 mmHg 53%
    21:00 +24°C° 0 mm 1 mps 732 mmHg 54%
    22:00 +24°C° 0 mm 2 mps 732 mmHg 56%
    23:00 +23°C° 0 mm 2 mps 732 mmHg 57%

    22 July, Sunday

    Time Temperature Precipitation Wind Pressure Humidity
    00:00 +21°C° 0 mm 2 mps 732 mmHg 59%
    01:00 +21°C° 0 mm 2 mps 732 mmHg 60%
    02:00 +21°C° 0 mm 2 mps 732 mmHg 62%
    03:00 +20°C° 0 mm 2 mps 732 mmHg 64%
    04:00 +20°C° 0 mm 2 mps 731 mmHg 66%
    05:00 +20°C° 0 mm 2 mps 731 mmHg 68%
    06:00 +23°C° 0.1 mm 2 mps 731 mmHg 64%
    07:00 +25°C° 0.1 mm 1 mps 732 mmHg 60%
    08:00 +27°C° 0.1 mm 1 mps 732 mmHg 56%
    09:00 +29°C° 0 mm 1 mps 731 mmHg 50%
    10:00 +31°C° 0 mm 1 mps 731 mmHg 44%
    11:00 +33°C° 0 mm 1 mps 731 mmHg 37%
    12:00 +34°C° 0 mm 1 mps 731 mmHg 35%
    13:00 +35°C° 0 mm 1 mps 730 mmHg 32%
    14:00 +37°C° 0 mm 2 mps 730 mmHg 29%
    15:00 +35°C° 0 mm 1 mps 729 mmHg 30%
    16:00 +35°C° 0 mm 1 mps 729 mmHg 31%
    17:00 +35°C° 0 mm 1 mps 729 mmHg 32%
    18:00 +32°C° 0.1 mm 1 mps 729 mmHg 38%
    19:00 +30°C° 0.1 mm 1 mps 728 mmHg 44%
    20:00 +28°C° 0.1 mm 1 mps 728 mmHg 50%
    21:00 +27°C° 0.2 mm 2 mps 728 mmHg 55%
    22:00 +25°C° 0.2 mm 2 mps 728 mmHg 59%
    23:00 +24°C° 0.2 mm 2 mps 729 mmHg 63%

    23 July, Monday

    Time Temperature Precipitation Wind Pressure Humidity
    00:00 +23°C° 0.2 mm 2 mps 728 mmHg 68%
    01:00 +21°C° 0.2 mm 2 mps 728 mmHg 72%
    02:00 +21°C° 0.2 mm 1 mps 728 mmHg 77%
    03:00 +21°C° 0.1 mm 1 mps 728 mmHg 79%
    04:00 +20°C° 0.1 mm 1 mps 728 mmHg 82%
    05:00 +20°C° 0.1 mm 1 mps 727 mmHg 84%
    06:00 +22°C° 0 mm 1 mps 727 mmHg 77%
    07:00 +24°C° 0 mm 1 mps 727 mmHg 70%
    08:00 +26°C° 0 mm 1 mps 727 mmHg 63%
    09:00 +27°C° 0 mm 2 mps 727 mmHg 57%
    10:00 +29°C° 0 mm 2 mps 727 mmHg 51%
    11:00 +31°C° 0 mm 2 mps 727 mmHg 46%
    12:00 +31°C° 0.3 mm 2 mps 727 mmHg 46%
    13:00 +31°C° 0.3 mm 2 mps 726 mmHg 47%
    14:00 +31°C° 0.3 mm 2 mps 726 mmHg 47%
    15:00 +30°C° 1.7 mm 3 mps 726 mmHg 52%
    16:00 +29°C° 1.7 mm 3 mps 726 mmHg 58%
    17:00 +28°C° 1.7 mm 3 mps 726 mmHg 63%
    18:00 +26°C° 3.4 mm 3 mps 726 mmHg 68%
    19:00 +24°C° 3.4 mm 3 mps 726 mmHg 73%
    20:00 +23°C° 3.4 mm 2 mps 726 mmHg 78%
    21:00 +21°C° 0.5 mm 2 mps 727 mmHg 80%
    22:00 +21°C° 0.5 mm 2 mps 727 mmHg 82%
    23:00 +20°C° 0.5 mm 2 mps 727 mmHg 84%

    24 July, Tuesday

    Time Temperature Precipitation Wind Pressure Humidity
    00:00 +20°C° 0.2 mm 2 mps 727 mmHg 85%
    01:00 +20°C° 0.2 mm 3 mps 727 mmHg 86%
    02:00 +19°C° 0.2 mm 3 mps 727 mmHg 86%
    03:00 +19°C° 0.1 mm 3 mps 727 mmHg 88%
    04:00 +19°C° 0.1 mm 2 mps 727 mmHg 89%
    05:00 +19°C° 0.1 mm 2 mps 727 mmHg 90%
    06:00 +19°C° 0.3 mm 2 mps 728 mmHg 89%
    07:00 +20°C° 0.3 mm 3 mps 728 mmHg 87%
    08:00 +21°C° 0.3 mm 3 mps 728 mmHg 85%
    09:00 +21°C° 0.8 mm 3 mps 728 mmHg 84%
    10:00 +22°C° 0.8 mm 3 mps 728 mmHg 83%
    11:00 +22°C° 0.8 mm 3 mps 729 mmHg 81%
    12:00 +24°C° 1.2 mm 3 mps 729 mmHg 80%
    13:00 +25°C° 1.2 mm 3 mps 729 mmHg 79%
    14:00 +25°C° 1.2 mm 3 mps 729 mmHg 78%
    15:00 +25°C° 1.2 mm 3 mps 729 mmHg 78%
    16:00 +25°C° 1.2 mm 2 mps 729 mmHg 79%
    17:00 +25°C° 1.2 mm 2 mps 729 mmHg 80%
    18:00 +24°C° 0.7 mm 2 mps 729 mmHg 84%
    19:00 +23°C° 0.7 mm 2 mps 729 mmHg 87%
    20:00 +22°C° 0.7 mm 1 mps 730 mmHg 91%
    21:00 +22°C° 0.5 mm 1 mps 730 mmHg 92%
    22:00 +21°C° 0.5 mm 1 mps 730 mmHg 93%
    23:00 +21°C° 0.5 mm 1 mps 731 mmHg 94%
    Show more